Location: Audrimont
(50.7004°N, 4.4808°E)
Time: 20:56:34
(UTC+00:00)

Daily predictions for brighter satellites

Satellite Brightness Start Highest point End
(mag) Time Altitude Azimuth Time Altitude Azimuth Time Altitude Azimuth
Cosmos 1626 Rocket 3.5 16:09:16 10° N 16:13:36 64° ENE 16:17:51 10° SSE
JB-3 4.1 16:12:34 10° NNE 16:16:15 79° ESE 16:19:52 10° S
NOSS 2-2 (C) 2.9 16:13:12 10° SW 16:16:21 63° NW 16:19:20 10° NE
Cosmos 1315 Rocket 3.1 16:18:36 10° SSW 16:22:24 65° WNW 16:26:14 10° N
BlueWalker 3 4.2 16:19:21 10° W 16:22:27 27° SW 16:25:32 10° SSE
ATLAS CENTAUR R/B 2.1 16:21:48 10° NW 16:24:54 44° SW 16:27:55 10° SSE
Thor Agena Rocket 3.6 16:22:41 10° SSE 16:27:48 60° ENE 16:32:52 10° N
Cosmos 2219 4.2 16:23:18 10° NNW 16:28:00 25° NE 16:32:41 10° E
CENTAUR R/B 3.1 16:23:16 10° WSW 16:29:04 56° NW 16:36:27 10° NE
Cosmos 1484 Rocket 2.5 16:28:52 10° SSE 16:32:23 86° WSW 16:35:54 10° NNW
USA 290 2.2 16:29:12 10° NNW 16:32:29 88° ENE 16:35:44 10° SSE
Cosmos 1544 Rocket 3.6 16:28:38 10° S 16:33:00 68° E 16:37:26 10° NNE
SL-16 R/B 2.6 16:27:03 10° NNE 16:33:18 73° ESE 16:39:29 10° S
GEOS 3 Rocket 4.3 16:29:05 10° NE 16:34:09 41° ESE 16:39:11 10° SSW
Lacrosse 5 rocket 1.8 16:30:58 10° W 16:34:31 40° NNW 16:37:41 12° NE
Cosmos 1844 Rocket 4.4 16:31:38 10° N 16:34:39 14° NNE 16:37:19 11° NE
Cosmos 1980 Rocket 3.8 16:32:04 10° SE 16:35:15 15° E 16:37:57 11° ENE
Iridium 51 4.4 16:35:21 10° SSW 16:38:26 57° W 16:41:38 10° N
Meteor 1-25 Rocket 4.5 16:32:49 10° N 16:38:29 50° ENE 16:44:04 10° SE
Lacrosse 4 Rocket 3.0 16:36:07 10° W 16:39:32 26° NW 16:42:56 10° NNE
BREEZE M DEB (TANK) 3.8 16:37:47 10° SSW 16:39:44 18° SSE 16:41:17 10° ESE
CORIOLIS 4.1 16:36:43 10° SSE 16:42:00 69° ENE 16:47:20 10° N
Cosmos 2263 Rocket 2.7 16:38:03 10° NNW 16:43:20 38° NE 16:48:36 10° ESE
IRIDIUM 104 4.4 16:38:14 10° N 16:43:24 57° E 16:48:32 10° SSE
Cosmos 2228 3.7 16:39:42 10° SSW 16:43:52 55° WNW 16:48:03 10° N
Cosmos 1777 Rocket 4.1 16:39:06 10° S 16:44:14 58° ESE 16:49:23 10° NNE
CZ-2D R/B 3.1 16:45:42 10° SE 16:48:39 39° ENE 16:51:38 10° N
Okean 1-7 Rocket 3.6 16:46:16 10° N 16:50:37 57° ENE 16:54:55 10° SSE
Cosmos 1602 Rocket 3.5 16:48:09 10° N 16:52:34 85° ENE 16:56:55 10° S
IRIDIUM 114 4.3 16:47:21 10° N 16:52:35 67° E 16:57:46 10° SSE
Cosmos 1461 2.8 16:51:48 10° SSW 16:55:38 60° SE 16:58:30 17° NE
Cosmos 1933 3.6 16:54:14 10° SSE 16:57:50 41° E 17:01:22 11° NNE
USA 215 3.6 16:53:50 14° ENE 16:59:16 52° N 17:05:35 10° WNW
Cosmos 2227 Rocket 2.1 16:54:19 10° NNW 16:59:58 72° ENE 17:05:37 10° SE
IRS-1C 4.1 16:54:42 10° SSE 16:59:59 71° ENE 17:05:19 10° NNW
YAOGAN 1 3.6 16:57:27 10° ESE 17:00:51 24° ENE 17:04:17 10° N
IRIDIUM 103 4.3 16:56:29 10° N 17:01:45 80° E 17:06:58 10° S
NOSS 2-3 (E) 4.4 16:59:14 10° S 17:02:16 25° ESE 17:03:39 20° E
NOSS 2-3 (D) 4.5 16:59:57 10° S 17:02:57 24° ESE 17:04:13 20° E
Cosmos 1743 3.2 16:59:55 10° NNW 17:03:06 52° W 17:06:15 10° S
NOSS 7 (H) 4.2 17:00:40 10° NW 17:03:35 75° SW 17:06:44 10° SE
Cosmos 1486 Rocket 4.1 16:58:46 10° SSW 17:03:59 81° WNW 17:09:16 10° NNE
Cosmos 2369 Rocket 4.3 17:00:37 10° WNW 17:04:25 18° NNW 17:08:14 10° N
SJ-12 3.6 17:01:02 10° SSE 17:04:46 65° ENE 17:08:33 10° N
Cosmos 2151 3.2 17:02:31 10° NNW 17:06:40 72° W 17:10:49 10° S
Cosmos 2360 4.3 17:02:27 10° SSW 17:08:11 81° WNW 17:13:47 11° NNE
Cosmos 2279 Rocket 4.5 17:05:45 10° SSW 17:11:54 63° WNW 17:18:07 10° N
Cosmos 1655 Rocket 4.0 17:06:22 10° N 17:12:31 56° ENE 17:18:37 10° SSE
Meteor 2-10 4.5 17:08:35 10° N 17:13:37 40° ENE 17:18:48 10° SE
Cosmos 1867 4.0 17:09:26 10° NW 17:14:52 68° SW 17:20:15 10° SSE
Cosmos 1697 Rocket 2.7 17:09:25 10° SSW 17:14:55 61° ESE 17:19:15 17° NE
Cosmos 990 Rocket 4.1 17:10:20 10° S 17:15:19 54° ESE 17:19:09 17° NE
Cosmos 1953 Rocket 3.8 17:12:03 10° N 17:16:22 47° ENE 17:20:40 10° SSE
MOS 1 Rocket 3.4 17:12:37 10° SSE 17:17:32 75° ENE 17:22:46 10° N
Aureole 1 Rocket 4.3 17:13:59 10° SSE 17:17:53 29° E 17:19:37 24° ENE
SAR-Lupe-4 3.6 17:14:37 10° SSE 17:18:11 82° WSW 17:21:46 10° NNW
NOSS 2-2 (D) 4.1 17:20:58 10° W 17:23:49 30° NW 17:25:11 21° N
Cosmos 1782 4.3 17:20:39 10° SW 17:23:55 32° WNW 17:27:12 10° N
ARIANE 5 R/B 2.7 17:19:53 10° S 17:24:57 74° WSW 17:30:07 10° NNW
Cosmos 1825 Rocket 3.5 17:21:23 10° N 17:25:46 87° W 17:30:04 10° S
Resurs 01 Rocket 3.9 17:29:46 11° NNE 17:29:46 11° NNE 17:29:55 10° NNE
SAR-Lupe-1 4.3 17:25:29 10° S 17:29:04 71° WSW 17:32:42 10° NNW
Cosmos 1680 Rocket 4.3 17:26:59 10° N 17:31:29 28° NE 17:31:45 28° ENE
Cosmos 2098 Rocket 4.4 17:28:03 10° SW 17:32:09 42° WNW 17:36:57 10° N
NOAA 6 4.4 17:27:51 10° SE 17:32:31 37° ENE 17:37:11 10° N
USA 81 4.1 17:28:19 10° N 17:33:29 53° E 17:38:37 10° SSE
UNK 4.1 17:29:36 10° N 17:34:10 63° WNW 17:38:39 10° SSW
CZ-2D R/B 3.4 17:32:08 10° SSE 17:36:14 56° ENE 17:40:17 10° N
NOSS 3-2 (A) 4.1 17:33:11 10° WSW 17:38:17 44° NNW 17:42:24 20° NNE
Gbstr 26 Del rocket 3.0 17:34:53 10° SW 17:38:47 52° SSE 17:39:37 42° ESE
IRAS Rocket 4.3 17:33:35 10° SE 17:38:51 51° ENE 17:44:09 10° N
NOSS 3-2 (C) 3.3 17:34:20 10° SW 17:39:29 76° NW 17:43:16 24° NE
SPOT 1/Viking Rocket 3.4 17:36:44 10° SSE 17:41:56 79° ENE 17:47:10 10° NNW
Cosmos 1076 Rocket 3.4 17:39:31 10° N 17:43:50 88° WSW 17:48:09 10° S
PSLV R/B 3.5 17:43:07 42° ESE 17:43:54 48° ENE 17:47:50 10° N
NOSS 2-2 (E) 4.3 17:41:38 10° W 17:44:19 26° NW 17:45:00 23° N
[s.n.66845] 4.1 17:43:10 10° NNW 17:43:44 15° NNW 17:43:44 15° NNW
[s.n.66847] 4.1 17:43:37 10° NNW 17:44:10 15° NNW 17:44:10 15° NNW
[s.n.66846] 4.1 17:44:03 10° NNW 17:44:37 15° NNW 17:44:37 15° NNW
SJ-7 4.3 17:47:21 52° NE 17:47:21 52° NE 17:50:36 10° N
Cosmos 2082 3.7 17:41:35 10° NNW 17:47:14 57° NE 17:50:42 23° SE
[s.n.66843] 4.1 17:44:36 10° NNW 17:45:09 15° NNW 17:45:09 15° NNW
CZ-4C R/B 4.0 17:40:38 10° NW 17:47:23 48° WSW 17:55:33 10° SSE
SL-19 R/B 4.2 17:42:17 10° SE 17:47:36 61° ENE 17:53:15 10° N
[s.n.66844] 4.1 17:45:03 10° NNW 17:45:35 14° NNW 17:45:35 14° NNW
[s.n.66842] 4.1 17:45:34 10° NNW 17:46:06 14° NNW 17:46:06 14° NNW
COSMO-SKYMED 1 3.1 17:49:12 36° SE 17:49:12 36° SE 17:52:15 10° S
[s.n.66841] 4.1 17:46:02 10° NNW 17:46:33 14° NNW 17:46:33 14° NNW
[s.n.66840] 4.1 17:46:32 10° NNW 17:47:03 14° NNW 17:47:03 14° NNW
IRS-P3 4.5 17:44:15 10° S 17:49:32 66° WSW 17:54:51 10° NNW
[s.n.66838] 4.1 17:47:01 10° NNW 17:47:32 14° NNW 17:47:32 14° NNW
Cosmos 2058 Rocket 3.2 17:45:51 10° S 17:50:11 51° E 17:50:45 48° ENE
[s.n.66839] 4.2 17:47:31 10° NNW 17:48:01 14° NNW 17:48:01 14° NNW
[s.n.66837] 4.2 17:47:58 10° NNW 17:48:28 14° NNW 17:48:28 14° NNW
[s.n.66836] 4.2 17:48:29 10° NNW 17:48:57 14° NNW 17:48:57 14° NNW
[s.n.66835] 4.2 17:49:00 10° NNW 17:49:28 14° NNW 17:49:28 14° NNW
[s.n.66834] 4.2 17:49:29 10° NNW 17:49:57 14° NNW 17:49:57 14° NNW
[s.n.66833] 4.2 17:49:55 10° NNW 17:50:24 14° NNW 17:50:24 14° NNW
[s.n.66832] 4.2 17:50:28 10° NNW 17:50:56 14° NNW 17:50:56 14° NNW
[s.n.66831] 4.2 17:50:54 10° NNW 17:51:21 14° NNW 17:51:21 14° NNW
[s.n.66830] 4.3 17:51:20 10° NNW 17:51:46 14° NNW 17:51:46 14° NNW
[s.n.66828] 4.2 17:51:46 10° NNW 17:52:12 14° NNW 17:52:12 14° NNW
[s.n.66829] 4.3 17:52:18 10° NNW 17:52:43 13° NNW 17:52:43 13° NNW
[s.n.66827] 4.3 17:52:49 10° NNW 17:53:15 13° NNW 17:53:15 13° NNW
[s.n.66826] 4.3 17:53:20 10° NNW 17:53:44 13° NNW 17:53:44 13° NNW
[s.n.66825] 4.3 17:53:46 10° NNW 17:54:11 13° NNW 17:54:11 13° NNW
[s.n.66824] 4.3 17:54:18 10° NNW 17:54:42 13° NNW 17:54:42 13° NNW
[s.n.66823] 4.3 17:54:49 10° NNW 17:55:13 13° NNW 17:55:13 13° NNW
[s.n.66822] 4.3 17:55:19 10° NNW 17:55:41 13° NNW 17:55:41 13° NNW
[s.n.66821] 4.3 17:55:47 10° NNW 17:56:10 13° NNW 17:56:10 13° NNW
Cosmos 1538 Rocket 4.1 17:54:19 10° NNW 17:59:36 77° WSW 18:04:55 10° SSE
Cosmos 1606 Rocket 4.5 17:57:06 10° SSW 18:01:23 49° WNW 18:05:40 10° N
Nadezhda 2 Rocket 4.3 17:55:29 10° N 18:01:36 65° ENE 18:07:38 10° SSE
Meteor 1-26 Rocket 4.1 17:58:47 10° S 18:04:05 59° E 18:05:35 43° NE
Cosmos 1553 Rocket 3.9 18:05:25 10° S 18:11:27 60° E 18:14:52 27° NNE
Lacrosse 5 rocket 2.6 18:08:51 10° WNW 18:11:16 26° NNW 18:11:16 26° NNW
GEOS 3 Rocket 4.2 18:09:53 32° NNE 18:12:15 55° NW 18:17:29 10° WSW
Resurs 1-3 3.6 18:08:28 10° S 18:12:46 79° WSW 18:17:07 10° NNW
Cosmos 2219 3.2 18:07:05 10° NNW 18:12:51 85° WSW 18:17:57 14° SSE
BREEZE-M DEB (TANK) 3.9 18:11:29 10° WSW 18:12:05 19° WSW 18:12:05 19° WSW
SL-16 R/B 4.3 18:11:17 10° N 18:16:22 27° NW 18:21:24 10° WSW
Cosmos 1980 Rocket 2.0 18:12:41 10° SSW 18:18:21 83° ESE 18:19:44 53° NE
Cosmos 1844 Rocket 3.3 18:14:42 10° NNW 18:18:59 39° NNE 18:18:59 39° NNE
CENTAUR R/B 3.9 18:15:22 10° WNW 18:21:18 32° N 18:24:02 26° NNE
USA 281 4.3 18:22:45 26° NNE 18:22:45 26° NNE 18:26:52 10° NNW
Spot 4 Rocket 4.4 18:19:32 10° S 18:24:36 63° WSW 18:29:42 10° NNW
NOSS 2-3 (C) 4.2 18:21:35 10° SW 18:23:54 41° WSW 18:23:54 41° WSW
Cosmos 1745 Rocket 4.2 18:19:52 10° N 18:24:48 48° NE 18:24:48 48° NE
Cosmos 2263 Rocket 3.1 18:21:57 10° NW 18:27:23 48° WSW 18:32:48 10° S
Cosmos 1898 Rocket 3.3 18:25:19 10° SSW 18:30:11 78° SSE 18:30:11 78° SSE
Cosmos 2369 3.8 18:25:42 10° SSW 18:30:42 59° SSE 18:30:42 59° SSE
Cosmos 44 Rocket 4.3 18:28:37 10° NW 18:32:08 38° N 18:32:08 38° N
YAOGAN 1 3.6 18:32:24 10° S 18:36:29 44° W 18:40:35 10° NNW
SKYMED 2 4.5 18:36:02 39° NNW 18:37:01 47° WNW 18:41:11 10° SW
Cosmos-2242 3.7 18:33:07 10° SSW 18:36:35 51° WSW 18:36:35 51° WSW
USA 238 DEB 3.4 18:33:58 10° SW 18:40:09 87° NW 18:41:14 65° NE
USA 238 3.4 18:34:05 10° SW 18:40:16 88° NW 18:41:19 66° NE
Cosmos 923 Rocket 4.0 18:36:16 10° NNW 18:41:29 76° WSW 18:41:32 76° WSW
USA 215 3.2 18:41:10 59° NE 18:41:49 62° NNE 18:48:17 10° WNW
Cosmos 372 Rocket 4.1 18:37:52 10° SSW 18:43:00 68° WNW 18:43:10 67° NW
Cosmos 1937 Rocket 4.2 18:44:04 10° SSW 18:47:30 43° SSW 18:47:30 43° SSW
Cosmos 1386 Rocket 4.4 18:45:24 10° NNW 18:51:30 82° W 18:57:41 10° S
Cosmos 1697 Rocket 4.2 18:54:17 10° WSW 18:59:15 31° NW 19:00:59 26° NNW
Aureole 1 Rocket 4.3 18:55:12 10° SW 18:59:45 48° NW 19:00:03 47° NW
COSMOS 2455 4.3 19:10:21 10° SSW 19:12:49 26° SSW 19:12:49 26° SSW
Cosmos 1980 Rocket 4.3 19:58:25 10° W 20:01:31 22° WNW 20:01:31 22° WNW
CENTAUR R/B 4.4 20:07:12 10° NW 20:11:08 29° NNW 20:11:08 29° NNW
